星链-1825 (STARLINK-1825 )

导读

STARLINK-1825是美国太空探索技术公司SpaceX星链卫星互联网项目中的一颗卫星,于2020年10月18日发射升空。星链计划旨在通过构建低轨卫星星座,为全球提供高速宽带互联网服务,该卫星是星链组网过程中的组成单元之一,服务项目全球网络覆盖目标。

基本信息
目录编号:
46722
目录名称:
STARLINK-1825
国际标识:
2020-073BE
轨道中心:
EARTH
卫星名称:
星链-1825
卫星全名:
星链-1825 (STARLINK-1825 )
卫星状态:
已陨落 最后检测时间 2024-05-31
发射日期:
2020-10-18 UTC
国别 :
美国 (US)
星等 :
--
轨道信息
数据来源 国际轨道数据
星历时间: 2024-06-01T07:18:29+0800
轨道信息已过期743天
半长轴: 6542.872km
偏心率: 0.000495
轨道倾角: 53.034°
近地点辐角 336.483°
升交点赤经 229.932°
平近点角 179.987°
近地点: 161.498km
远地点: 167.976km
周期: 87.783分钟
每日圈数: 16.404015
详细信息
固有亮度:
5
最大亮度:
2.5
卫星平台:
Starlink V1.0
覆盖范围:
全球
运营商:
太空探索技术公司
运营商所在国:
美国
制造商(研发单位):
太空探索技术公司
制造商所在国:
美国
使用方式:
暂无
卫星简介
星链(Starlink)计划是由太空探索技术公司(SpaceX)提出的一个巨型低轨卫星互联网星座项目,计划在2019年至2024年间在太空搭建由约1.2万颗卫星组成的“星链”网络,其中1584颗将部署在地球上空550千米处的近地轨道,并从2020年开始工作。该卫星已陨落。